{"data":{"norad_id":61247,"epoch":"2026-05-24T23:50:49.994880Z","epoch_age_seconds":68866,"freshness":"FRESH","line1":"1 61247U 24175E   26144.99363420  .00000870  00000+0  12046-4 0  9993","line2":"2 61247  53.1594  39.9128 0001119  72.7567 287.3573 15.69693500 95358","mean_motion":15.696935,"eccentricity":0.0001119,"inclination_deg":53.1594,"raan_deg":39.9128,"arg_perigee_deg":72.7567,"mean_anomaly_deg":287.3573,"bstar":1.2046e-5,"rev_number":9535,"period_min":91.73765451663,"perigee_km":359.01999528025,"apogee_km":360.52793975478,"semimajor_km":6737.9109675175,"source":"CELESTRAK","updated_at":"2026-05-25T13:38:19.364601Z"}}